SSEC Globe Logo

Space Science and Engineering Center

Surface Aviation Observations

KAIG 220615Z AUTO 00000KT 10SM CLR 08/08 A3006 RMK AO2
     T00800076=
KAIG 220615Z AUTO 00000KT 10SM CLR 08/08 A3006 RMK AO2
     T00800076=
KAIG 220555Z AUTO 00000KT 10SM CLR 08/08 A3006 RMK AO2
     T00810080 10183 20081=
KAIG 220555Z AUTO 00000KT 10SM CLR 08/08 A3006 RMK AO2
     T00810080 10183 20081=
KC29 220615Z AUTO 00000KT 10SM CLR 16/12 A3005 RMK AO1
     T01590120=
KC29 220615Z AUTO 00000KT 10SM CLR 16/12 A3005 RMK AO1
     T01590120=
KC29 220555Z AUTO 00000KT 10SM CLR 16/13 A3005 RMK AO1
     T01580125 10220 20158=
KC29 220555Z AUTO 00000KT 10SM CLR 16/13 A3005 RMK AO1
     T01580125 10220 20158=
KBCK 220615Z AUTO 00000KT 10SM OVC070 11/11 A3005 RMK AO2
     T01100110=
KBCK 220615Z AUTO 00000KT 10SM OVC070 11/11 A3005 RMK AO2
     T01100110=
KBCK 220555Z AUTO 00000KT 7SM OVC070 11/11 A3004 RMK AO2
     T01100110 10217 20089 402510089=
KBCK 220555Z AUTO 00000KT 7SM OVC070 11/11 A3004 RMK AO2
     T01100110 10217 20089 402510089=
KUBE 220615Z AUTO 00000KT 10SM SCT055 OVC065 13/11 A3007 RMK
     AO2=
KUBE 220615Z AUTO 00000KT 10SM SCT055 OVC065 13/11 A3007 RMK
     AO2=
KUBE 220555Z AUTO 35004KT 10SM SCT055 OVC065 13/10 A3007 RMK
     AO2=
KUBE 220555Z AUTO 35004KT 10SM SCT055 OVC065 13/10 A3007 RMK
     AO2=
KPVB 220615Z AUTO 32003KT 10SM CLR 17/16 A3006 RMK AO1
     T01670158=
KPVB 220615Z AUTO 32003KT 10SM CLR 17/16 A3006 RMK AO1
     T01670158=
KPVB 220555Z AUTO 00000KT 10SM CLR 17/16 A3006 RMK AO1
     T01690163 10217 20169 402470169=
KPVB 220555Z AUTO 00000KT 10SM CLR 17/16 A3006 RMK AO1
     T01690163 10217 20169 402470169=
KEZS 220615Z AUTO 00000KT 10SM CLR 12/11 A3004 RMK AO2
     T01240105=
KEZS 220615Z AUTO 00000KT 10SM CLR 12/11 A3004 RMK AO2
     T01240105=
KEZS 220555Z AUTO 00000KT 10SM CLR 13/11 A3003 RMK AO2
     T01270105 10221 20125 402590125=
KEZS 220555Z AUTO 00000KT 10SM CLR 13/11 A3003 RMK AO2
     T01270105 10221 20125 402590125=
KARV 220555Z AUTO 00000KT 1 1/4SM BR VV007 11/10 A3005 RMK
     AO2 VIS 1/2V5 T01100096 10185 20102 402220102=
KARV 220555Z AUTO 00000KT 1 1/4SM BR VV007 11/10 A3005 RMK
     AO2 VIS 1/2V5 T01100096 10185 20102 402220102=
KASX 220553Z AUTO 27003KT 10SM FEW060 11/10 A3005 RMK AO2
     SLP178 T01060100 10200 20094 402330094 50007 $=
KASX 220553Z AUTO 27003KT 10SM FEW060 11/10 A3005 RMK AO2
     SLP178 T01060100 10200 20094 402330094 50007 $=
KATW 220615Z AUTO 36004KT 10SM CLR 13/06 A3002 RMK AO2=
KATW 220615Z AUTO 36004KT 10SM CLR 13/06 A3002 RMK AO2=
KATW 220555Z AUTO 36004KT 10SM CLR 14/06 A3002 RMK AO2=
KATW 220555Z AUTO 36004KT 10SM CLR 14/06 A3002 RMK AO2=
KAUW 220554Z AUTO 00000KT 10SM CLR 12/10 A3003 RMK AO2
     SLP172 T01170100 10211 20111 402390111 51005=
KAUW 220554Z AUTO 00000KT 10SM CLR 12/10 A3003 RMK AO2
     SLP172 T01170100 10211 20111 402390111 51005=
KBUU 220615Z AUTO 00000KT 10SM CLR 16/14 A3001 RMK AO2
     T01560142=
KBUU 220615Z AUTO 00000KT 10SM CLR 16/14 A3001 RMK AO2
     T01560142=
KBUU 220555Z AUTO 00000KT 10SM CLR 16/15 A3001 RMK AO2
     T01610145 10216 20161 402580152=
KBUU 220555Z AUTO 00000KT 10SM CLR 16/15 A3001 RMK AO2
     T01610145 10216 20161 402580152=
KCLI 220615Z AUTO 00000KT 10SM CLR 11/09 A3004 RMK AO2
     T01110085=
KCLI 220615Z AUTO 00000KT 10SM CLR 11/09 A3004 RMK AO2
     T01110085=
KCLI 220555Z AUTO 00000KT 10SM CLR 12/09 A3004 RMK AO2
     T01160085 10225 20116=
KCLI 220555Z AUTO 00000KT 10SM CLR 12/09 A3004 RMK AO2
     T01160085 10225 20116=
KCMY 220615Z AUTO 00000KT 10SM CLR 09/09 A3006 RMK AO2
     T00880087=
KCMY 220615Z AUTO 00000KT 10SM CLR 09/09 A3006 RMK AO2
     T00880087=
KCMY 220555Z AUTO 00000KT 10SM CLR 09/09 A3006 RMK AO2
     T00920088 10202 20091 402410091=
KCMY 220555Z AUTO 00000KT 10SM CLR 09/09 A3006 RMK AO2
     T00920088 10202 20091 402410091=
KCWA 220615Z AUTO 00000KT 10SM CLR 11/11 A3006 RMK AO2=
KCWA 220615Z AUTO 00000KT 10SM CLR 11/11 A3006 RMK AO2=
KCWA 220555Z AUTO 00000KT 10SM CLR 11/11 A3005 RMK AO2=
KCWA 220555Z AUTO 00000KT 10SM CLR 11/11 A3005 RMK AO2=
KDLL 220615Z AUTO 00000KT 10SM CLR 13/11 A3005 RMK AO2
     T01290111=
KDLL 220615Z AUTO 00000KT 10SM CLR 13/11 A3005 RMK AO2
     T01290111=
KDLL 220555Z AUTO 00000KT 10SM CLR 14/12 A3005 RMK AO2
     T01360117 10208 20135 402460135=
KDLL 220555Z AUTO 00000KT 10SM CLR 14/12 A3005 RMK AO2
     T01360117 10208 20135 402460135=
KEAU 220556Z AUTO 00000KT 10SM SCT055 OVC070 17/14 A3003 RMK
     AO2 SLP167 T01670144 10222 20156 402390150 51004=
KEAU 220556Z AUTO 00000KT 10SM SCT055 OVC070 17/14 A3003 RMK
     AO2 SLP167 T01670144 10222 20156 402390150 51004=
KEFT 220615Z AUTO 34003KT 10SM CLR 18/13 A3004 RMK AO2
     T01760125=
KEFT 220615Z AUTO 34003KT 10SM CLR 18/13 A3004 RMK AO2
     T01760125=
KEFT 220555Z AUTO 33004KT 10SM CLR 18/13 A3005 RMK AO2
     T01760128 10225 20176 402600176=
KEFT 220555Z AUTO 33004KT 10SM CLR 18/13 A3005 RMK AO2
     T01760128 10225 20176 402600176=
KEGV 220615Z AUTO 00000KT 1 1/2SM BR SCT001 07/07 A3005 RMK
     AO2 T00700070=
KEGV 220615Z AUTO 00000KT 1 1/2SM BR SCT001 07/07 A3005 RMK
     AO2 T00700070=
KEGV 220555Z AUTO 00000KT 10SM SCT002 08/08 A3005 RMK AO2
     T00800080 10179 20066 402160066=
KEGV 220555Z AUTO 00000KT 10SM SCT002 08/08 A3005 RMK AO2
     T00800080 10179 20066 402160066=
KENW 220553Z AUTO 32004KT 10SM CLR 20/16 A3000 RMK AO2
     SLP153 T02000156 10239 20194 402890172 50003=
KENW 220553Z AUTO 32004KT 10SM CLR 20/16 A3000 RMK AO2
     SLP153 T02000156 10239 20194 402890172 50003=
KETB 220555Z AUTO 00000KT 10SM CLR 16/11 A3002 RMK AO2=
KETB 220555Z AUTO 00000KT 10SM CLR 16/11 A3002 RMK AO2=
KFLD 220553Z AUTO 06007KT 10SM CLR 18/10 A3003 RMK AO2
     SLP165 T01830100 10233 20183 402670183 51009=
KFLD 220553Z AUTO 06007KT 10SM CLR 18/10 A3003 RMK AO2
     SLP165 T01830100 10233 20183 402670183 51009=
KGRB 220553Z AUTO 00000KT 10SM OVC070 16/10 A3003 RMK AO2
     SLP166 T01610100 10233 20144 402720144 51009=
KGRB 220553Z AUTO 00000KT 10SM OVC070 16/10 A3003 RMK AO2
     SLP166 T01610100 10233 20144 402720144 51009=
KHYR 220553Z AUTO 00000KT 10SM OVC070 13/10 A3006 RMK AO2
     SLP181 T01330100 10206 20111 402280089 51006=
KHYR 220553Z AUTO 00000KT 10SM OVC070 13/10 A3006 RMK AO2
     SLP181 T01330100 10206 20111 402280089 51006=
KISW 220554Z AUTO 00000KT 10SM CLR 12/11 A3005 RMK AO2
     SLP173 T01170106 10222 20117 402500117 51006=
KISW 220554Z AUTO 00000KT 10SM CLR 12/11 A3005 RMK AO2
     SLP173 T01170106 10222 20117 402500117 51006=
KJVL 220615Z AUTO 32003KT 10SM CLR 16/16 A3002 RMK AO2=
KJVL 220615Z AUTO 32003KT 10SM CLR 16/16 A3002 RMK AO2=
KJVL 220555Z AUTO 00000KT 10SM CLR 17/17 A3003 RMK AO2=
KJVL 220555Z AUTO 00000KT 10SM CLR 17/17 A3003 RMK AO2=
KLNL 220615Z AUTO 00000KT 5SM BR CLR 07/07 A3007 RMK AO2
     T00670065=
KLNL 220615Z AUTO 00000KT 5SM BR CLR 07/07 A3007 RMK AO2
     T00670065=
KLNL 220555Z AUTO 00000KT 10SM CLR 07/07 A3007 RMK AO2
     T00680065 10180 20066 402120066=
KLNL 220555Z AUTO 00000KT 10SM CLR 07/07 A3007 RMK AO2
     T00680065 10180 20066 402120066=
KLNR 220556Z AUTO 28003KT 10SM CLR 14/13 A3004 RMK AO2
     SLP165 T01440133 10222 20144 402610144 51006 $=
KLNR 220556Z AUTO 28003KT 10SM CLR 14/13 A3004 RMK AO2
     SLP165 T01440133 10222 20144 402610144 51006 $=
KLSE 220553Z AUTO 12003KT 10SM CLR 16/13 A3004 RMK AO2
     SLP166 T01560128 10228 20156 402670156 52003=
KLSE 220553Z AUTO 12003KT 10SM CLR 16/13 A3004 RMK AO2
     SLP166 T01560128 10228 20156 402670156 52003=
KLUM 220615Z AUTO 00000KT 10SM OVC065 14/13 A3005 RMK AO2
     T01360127=
KLUM 220615Z AUTO 00000KT 10SM OVC065 14/13 A3005 RMK AO2
     T01360127=
KLUM 220555Z AUTO 00000KT 10SM OVC065 14/13 A3005 RMK AO2
     T01360130 10199 20131 402130131=
KLUM 220555Z AUTO 00000KT 10SM OVC065 14/13 A3005 RMK AO2
     T01360130 10199 20131 402130131=
KMDZ 220615Z AUTO 00000KT 10SM OVC070 11/10 A3005 RMK AO2
     T01070102=
KMDZ 220615Z AUTO 00000KT 10SM OVC070 11/10 A3005 RMK AO2
     T01070102=
KMDZ 220555Z AUTO 00000KT 10SM OVC070 10/10 A3005 RMK AO2
     T01000096 10181 20091 402080091=
KMDZ 220555Z AUTO 00000KT 10SM OVC070 10/10 A3005 RMK AO2
     T01000096 10181 20091 402080091=
KMFI 220554Z AUTO 32003KT 10SM CLR 12/11 A3004 RMK AO2
     SLP171 T01220106 10206 20117 402390117 50004=
KMFI 220554Z AUTO 32003KT 10SM CLR 12/11 A3004 RMK AO2
     SLP171 T01220106 10206 20117 402390117 50004=
KMKE 220552Z 35008KT 10SM BKN170 21/11 A3000 RMK AO2 SLP153
     T02060111 10250 20200 402940200 51008=
KMKE 220552Z 35008KT 10SM BKN170 21/11 A3000 RMK AO2 SLP153
     T02060111 10250 20200 402940200 51008=
KMRJ 220615Z AUTO 00000KT 16/13 A3006 RMK AO2 PWINO=
KMRJ 220615Z AUTO 00000KT 16/13 A3006 RMK AO2 PWINO=
KMRJ 220555Z AUTO 00000KT 16/14 A3006 RMK AO2 PWINO=
KMRJ 220555Z AUTO 00000KT 16/14 A3006 RMK AO2 PWINO=
KMSN 220553Z AUTO 33003KT 10SM CLR 17/12 A3003 RMK AO2
     SLP166 T01670122 10222 20167 402610167 53008=
KMSN 220553Z AUTO 33003KT 10SM CLR 17/12 A3003 RMK AO2
     SLP166 T01670122 10222 20167 402610167 53008=
KMTW 220556Z AUTO 35004KT 10SM CLR 16/11 A3003 RMK AO2
     SLP166 T01610111 10222 20161 51013=
KMTW 220556Z AUTO 35004KT 10SM CLR 16/11 A3003 RMK AO2
     SLP166 T01610111 10222 20161 51013=
KMWC 220615Z AUTO 36005KT 10SM CLR 17/10 A3002 RMK AO2=
KMWC 220615Z AUTO 36005KT 10SM CLR 17/10 A3002 RMK AO2=
KMWC 220555Z AUTO 36007KT 10SM CLR 17/10 A3002 RMK AO2=
KMWC 220555Z AUTO 36007KT 10SM CLR 17/10 A3002 RMK AO2=
KOEO 220615Z AUTO 00000KT 10SM OVC070 14/14 A3009 RMK AO2
     T01370137 PWINO=
KOEO 220615Z AUTO 00000KT 10SM OVC070 14/14 A3009 RMK AO2
     T01370137 PWINO=
KOEO 220555Z AUTO 00000KT 10SM BKN070 14/14 A3009 RMK AO2
     T01380138 10216 20135 402370120=
KOEO 220555Z AUTO 00000KT 10SM BKN070 14/14 A3009 RMK AO2
     T01380138 10216 20135 402370120=
KOSH 220553Z AUTO 00000KT 10SM CLR 17/09 A3002 RMK AO2
     SLP156 T01720094 10228 20161 402560161 51008=
KOSH 220553Z AUTO 00000KT 10SM CLR 17/09 A3002 RMK AO2
     SLP156 T01720094 10228 20161 402560161 51008=
KOVS 220553Z AUTO 00000KT 7SM CLR 13/13 A3005 RMK AO2 SLP175
     T01330128 10228 20133 402720133 53006=
KOVS 220553Z AUTO 00000KT 7SM CLR 13/13 A3005 RMK AO2 SLP175
     T01330128 10228 20133 402720133 53006=
KPBH 220615Z AUTO 00000KT 10SM SCT070 09/09 A3005 RMK AO2
     T00860086=
KPBH 220615Z AUTO 00000KT 10SM SCT070 09/09 A3005 RMK AO2
     T00860086=
KPBH 220555Z AUTO 00000KT 10SM CLR 09/09 A3005 RMK AO2
     T00890089 10181 20085 402120085=
KPBH 220555Z AUTO 00000KT 10SM CLR 09/09 A3005 RMK AO2
     T00890089 10181 20085 402120085=
KPCZ 220615Z AUTO 00000KT 10SM CLR 13/11 A3004 RMK AO2
     T01250109=
KPCZ 220615Z AUTO 00000KT 10SM CLR 13/11 A3004 RMK AO2
     T01250109=
KPCZ 220555Z AUTO 00000KT 10SM CLR 13/11 A3004 RMK AO2
     T01260109 10222 20126=
KPCZ 220555Z AUTO 00000KT 10SM CLR 13/11 A3004 RMK AO2
     T01260109 10222 20126=
KPDC 220615Z AUTO 00000KT 10SM CLR 14/13 A3005 RMK AO2
     T01420131=
KPDC 220615Z AUTO 00000KT 10SM CLR 14/13 A3005 RMK AO2
     T01420131=
KPDC 220555Z AUTO 00000KT 10SM CLR 15/14 A3005 RMK AO2
     T01500138 10219 20148 402500148=
KPDC 220555Z AUTO 00000KT 10SM CLR 15/14 A3005 RMK AO2
     T01500138 10219 20148 402500148=
KRAC 220553Z AUTO 33004KT 10SM CLR 19/14 A3001 RMK AO2
     SLP158 T01940144 10244 20194 402890194 51004=
KRAC 220553Z AUTO 33004KT 10SM CLR 19/14 A3001 RMK AO2
     SLP158 T01940144 10244 20194 402890194 51004=
KRCX 220615Z AUTO 00000KT 10SM OVC070 15/13 A3006 RMK AO2
     T01460125=
KRCX 220615Z AUTO 00000KT 10SM OVC070 15/13 A3006 RMK AO2
     T01460125=
KRCX 220555Z AUTO 00000KT 10SM OVC070 15/13 A3007 RMK AO2
     T01500131 10207 20122 402350122=
KRCX 220555Z AUTO 00000KT 10SM OVC070 15/13 A3007 RMK AO2
     T01500131 10207 20122 402350122=
KRHI 220620Z AUTO 00000KT 1 3/4SM BR CLR 08/07 A3006 RMK AO2
     T00780067=
KRHI 220553Z AUTO 00000KT 5SM BR CLR 09/07 A3006 RMK AO2
     SLP179 T00890072 10189 20078 402170078 51004=
KRHI 220553Z AUTO 00000KT 5SM BR CLR 09/07 A3006 RMK AO2
     SLP179 T00890072 10189 20078 402170078 51004=
KRHI 220548Z AUTO 00000KT 2SM BR CLR 09/07 A3006 RMK AO2=
KRNH 220615Z AUTO 36003KT 10SM OVC070 14/12 A3007 RMK AO2
     T01400116=
KRNH 220615Z AUTO 36003KT 10SM OVC070 14/12 A3007 RMK AO2
     T01400116=
KRNH 220555Z AUTO 01004KT 10SM OVC070 14/12 A3006 RMK AO2
     T01430117 10210 20136 402330121=
KRNH 220555Z AUTO 01004KT 10SM OVC070 14/12 A3006 RMK AO2
     T01430117 10210 20136 402330121=
KRPD 220635Z AUTO 30003KT 10SM SCT055 OVC070 14/06 A3007 RMK
     AO2 T01400059=
KRPD 220615Z AUTO 00000KT 10SM SCT055 OVC070 14/06 A3007 RMK
     AO2 T01390057=
KRPD 220615Z AUTO 00000KT 10SM SCT055 OVC070 14/06 A3007 RMK
     AO2 T01390057=
KRPD 220555Z AUTO 30003KT 10SM OVC060 14/06 A3007 RMK AO2
     T01380059 10212 20126 402350117=
KRPD 220555Z AUTO 30003KT 10SM OVC060 14/06 A3007 RMK AO2
     T01380059 10212 20126 402350117=
KRRL 220615Z AUTO 00000KT 5SM BR SCT002 07/07 A3006 RMK AO2
     T00720072 TSNO=
KRRL 220615Z AUTO 00000KT 5SM BR SCT002 07/07 A3006 RMK AO2
     T00720072 TSNO=
KRRL 220555Z AUTO 00000KT 10SM CLR 08/08 A3006 RMK AO2
     T00840084 10193 20083 402270083 TSNO=
KRRL 220555Z AUTO 00000KT 10SM CLR 08/08 A3006 RMK AO2
     T00840084 10193 20083 402270083 TSNO=
KRYV 220615Z AUTO 00000KT 10SM CLR 16/13 A3003 RMK AO2
     T01600131=
KRYV 220615Z AUTO 00000KT 10SM CLR 16/13 A3003 RMK AO2
     T01600131=
KRYV 220555Z AUTO 00000KT 10SM CLR 16/13 A3002 RMK AO2
     T01620127 10219 20162 402600162=
KRYV 220555Z AUTO 00000KT 10SM CLR 16/13 A3002 RMK AO2
     T01620127 10219 20162 402600162=
KRZN 220615Z AUTO 00000KT 10SM OVC070 13/11 A3007 RMK AO2
     T01250108=
KRZN 220615Z AUTO 00000KT 10SM OVC070 13/11 A3007 RMK AO2
     T01250108=
KRZN 220555Z AUTO 00000KT 10SM OVC070 12/10 A3007 RMK AO2
     T01190102 10200 20108 402360083=
KRZN 220555Z AUTO 00000KT 10SM OVC070 12/10 A3007 RMK AO2
     T01190102 10200 20108 402360083=
KSBM 220553Z AUTO 36007KT 10SM FEW065 17/10 A3002 RMK AO2
     SLP161 60000 T01670100 10228 20167 402560167 51013=
KSBM 220553Z AUTO 36007KT 10SM FEW065 17/10 A3002 RMK AO2
     SLP161 60000 T01670100 10228 20167 402560167 51013=
KSTE 220615Z AUTO 00000KT 10SM CLR 09/09 A3005 RMK AO2
     T00900090=
KSTE 220615Z AUTO 00000KT 10SM CLR 09/09 A3005 RMK AO2
     T00900090=
KSTE 220555Z AUTO 00000KT 10SM CLR 09/09 A3005 RMK AO2
     T00920092 10200 20092 402310092=
KSTE 220555Z AUTO 00000KT 10SM CLR 09/09 A3005 RMK AO2
     T00920092 10200 20092 402310092=
KSUE 220556Z AUTO 06004KT 10SM CLR 16/12 A3003 RMK AO2
     SLP165 T01560117 10206 20156 402440156 50008=
KSUE 220556Z AUTO 06004KT 10SM CLR 16/12 A3003 RMK AO2
     SLP165 T01560117 10206 20156 402440156 50008=
KSUW 220615Z AUTO 00000KT 10SM OVC075 14/10 A3006 RMK AO2
     T01410098=
KSUW 220615Z AUTO 00000KT 10SM OVC075 14/10 A3006 RMK AO2
     T01410098=
KSUW 220555Z AUTO 00000KT 10SM OVC075 14/10 A3005 RMK AO2
     T01420100 10214 20111 402340069=
KSUW 220555Z AUTO 00000KT 10SM OVC075 14/10 A3005 RMK AO2
     T01420100 10214 20111 402340069=
KTKV 220615Z AUTO 00000KT 10SM CLR 06/06 A3006 RMK AO2
     T00600056 PWINO=
KTKV 220615Z AUTO 00000KT 10SM CLR 06/06 A3006 RMK AO2
     T00600056 PWINO=
KTKV 220555Z AUTO 00000KT 10SM CLR 06/06 A3006 RMK AO2
     T00630058 10181 20062 402150062 PWINO=
KTKV 220555Z AUTO 00000KT 10SM CLR 06/06 A3006 RMK AO2
     T00630058 10181 20062 402150062 PWINO=
KUES 220615Z AUTO 00000KT 10SM CLR 16/11 A3003 RMK AO2=
KUES 220615Z AUTO 00000KT 10SM CLR 16/11 A3003 RMK AO2=
KUES 220555Z AUTO 35003KT 10SM CLR 16/11 A3003 RMK AO2=
KUES 220555Z AUTO 35003KT 10SM CLR 16/11 A3003 RMK AO2=
KUNU 220615Z AUTO 00000KT 10SM CLR 15/12 A3004 RMK AO2
     T01530117 TSNO=
KUNU 220615Z AUTO 00000KT 10SM CLR 15/12 A3004 RMK AO2
     T01530117 TSNO=
KUNU 220555Z AUTO 00000KT 10SM CLR 16/12 A3004 RMK AO2
     T01550115 10216 20155 402420155 TSNO=
KUNU 220555Z AUTO 00000KT 10SM CLR 16/12 A3004 RMK AO2
     T01550115 10216 20155 402420155 TSNO=
KVOK 220611Z AUTO 00000KT 1/2SM R27/1800V4000FT FG CLR 10/10
     A3005 RMK AO2 SLP178 PWINO TSNO $=
SPECI KVOK 220611Z AUTO 00000KT 1/2SM R27/1800V4000FT FG CLR
     10/10 A3005 RMK AO2 SLP178 PWINO TSNO $=
SPECI KVOK 220611Z AUTO 00000KT 1/2SM R27/1800V4000FT FG CLR
     10/10 A3005 RMK AO2 SLP178 PWINO TSNO $=
SPECI KVOK 220606Z AUTO 00000KT 3/8SM R27/1800V2800FT FG CLR
     09/09 A3005 RMK AO2 SLP179 PWINO TSNO $=
KVOK 220606Z AUTO 00000KT 3/8SM R27/1800V2800FT FG CLR 09/09
     A3005 RMK AO2 SLP179 PWINO TSNO $=
SPECI KVOK 220606Z AUTO 00000KT 3/8SM R27/1800V2800FT FG CLR
     09/09 A3005 RMK AO2 SLP179 PWINO TSNO $=
KY50 220556Z AUTO 00000KT 10SM CLR 12/11 A3004 RMK AO2
     SLP169 T01170111 10217 20117 402560117 50008 $=
KY50 220556Z AUTO 00000KT 10SM CLR 12/11 A3004 RMK AO2
     SLP169 T01170111 10217 20117 402560117 50008 $=
KY51 220615Z AUTO 00000KT 10SM CLR 15/13 A3006 RMK AO1
     T01500133=
KY51 220615Z AUTO 00000KT 10SM CLR 15/13 A3006 RMK AO1
     T01500133=
KY51 220555Z AUTO 00000KT 10SM CLR 16/13 A3006 RMK AO1
     T01570131 10197 20153=
KY51 220555Z AUTO 00000KT 10SM CLR 16/13 A3006 RMK AO1
     T01570131 10197 20153=
KY23 220615Z AUTO 36005KT 10SM OVC070 16/12 A3006 RMK AO2
     T01620120=
KY23 220615Z AUTO 36005KT 10SM OVC070 16/12 A3006 RMK AO2
     T01620120=
KY23 220555Z AUTO 36005KT 10SM SCT060 OVC070 16/12 A3006 RMK
     AO2 T01630122 10210 20140=
KY23 220555Z AUTO 36005KT 10SM SCT060 OVC070 16/12 A3006 RMK
     AO2 T01630122 10210 20140=
K3D2 220615Z AUTO 00000KT 10SM CLR 14/11 A3002 RMK AO2
     T01430107=
K3D2 220615Z AUTO 00000KT 10SM CLR 14/11 A3002 RMK AO2
     T01430107=
K3D2 220555Z AUTO 07003KT 10SM CLR 15/11 A3002 RMK AO2
     T01460107 10211 20146 402400146=
K3D2 220555Z AUTO 07003KT 10SM CLR 15/11 A3002 RMK AO2
     T01460107 10211 20146 402400146=
KD25 220615Z AUTO 00000KT 10SM CLR 08/08 A3005 RMK AO2
     T00750075=
KD25 220615Z AUTO 00000KT 10SM CLR 08/08 A3005 RMK AO2
     T00750075=
KD25 220555Z AUTO 02003KT 1 1/4SM BR VV007 08/08 A3005 RMK
     AO2 VIS 1/2V5 T00780078 10180 20076 402050076=
KD25 220555Z AUTO 02003KT 1 1/4SM BR VV007 08/08 A3005 RMK
     AO2 VIS 1/2V5 T00780078 10180 20076 402050076=
K82C 220615Z AUTO 00000KT 7SM CLR 12/12 A3004 RMK AO2
     T01220120=
K82C 220615Z AUTO 00000KT 7SM CLR 12/12 A3004 RMK AO2
     T01220120=
K82C 220555Z AUTO 00000KT 7SM CLR 13/12 A3004 RMK AO2
     T01250121 10209 20125=
K82C 220555Z AUTO 00000KT 7SM CLR 13/12 A3004 RMK AO2
     T01250121 10209 20125=
KOCQ 220615Z AUTO 00000KT 10SM CLR 10/09 A3003 RMK AO1
     T01010092=
KOCQ 220615Z AUTO 00000KT 10SM CLR 10/09 A3003 RMK AO1
     T01010092=
KOCQ 220555Z AUTO 00000KT 10SM CLR 10/10 A3003 RMK AO1
     T01040095 10210 20100 402540100=
KOCQ 220555Z AUTO 00000KT 10SM CLR 10/10 A3003 RMK AO1
     T01040095 10210 20100 402540100=
KC35 220615Z AUTO 00000KT 10SM CLR 14/14 A3005 RMK AO2
     T01430138 PWINO=
KC35 220615Z AUTO 00000KT 10SM CLR 14/14 A3005 RMK AO2
     T01430138 PWINO=
KC35 220555Z AUTO 00000KT 10SM CLR 14/14 A3004 RMK AO2
     T01440138 10216 20144 402490144 PWINO=
KC35 220555Z AUTO 00000KT 10SM CLR 14/14 A3004 RMK AO2
     T01440138 10216 20144 402490144 PWINO=
KOLG 220615Z AUTO 00000KT 10SM SCT070 11/10 A3006 RMK AO1=
KOLG 220615Z AUTO 00000KT 10SM SCT070 11/10 A3006 RMK AO1=
KOLG 220555Z AUTO 00000KT 10SM SCT070 11/10 A3006 RMK AO1=
KOLG 220555Z AUTO 00000KT 10SM SCT070 11/10 A3006 RMK AO1=
K2P2 220615Z AUTO 03003KT 10SM BKN110 14/11 A3002 RMK AO2
     T01440106=
K2P2 220615Z AUTO 03003KT 10SM BKN110 14/11 A3002 RMK AO2
     T01440106=
K2P2 220555Z AUTO 03003KT 10SM BKN110 15/11 A3001 RMK AO2
     T01520108 10205 20151 402330135=
K2P2 220555Z AUTO 03003KT 10SM BKN110 15/11 A3001 RMK AO2
     T01520108 10205 20151 402330135=
KDBQ 220553Z AUTO 00000KT 10SM CLR 17/15 A3007 RMK AO2
     SLP177 T01670150 10211 20161 402500161 53011=
KDBQ 220553Z AUTO 00000KT 10SM CLR 17/15 A3007 RMK AO2
     SLP177 T01670150 10211 20161 402500161 53011=
KRST 220554Z AUTO 24003KT 10SM CLR 13/12 A3007 RMK AO2
     SLP179 T01280117 10211 20128 402330128 53001=
KRST 220554Z AUTO 24003KT 10SM CLR 13/12 A3007 RMK AO2
     SLP179 T01280117 10211 20128 402330128 53001=
KMSP 220553Z 01004KT 10SM BKN065 18/11 A3006 RMK AO2 SLP176
     T01780111 10233 20172 402500150 51006=
KMSP 220553Z 01004KT 10SM BKN065 18/11 A3006 RMK AO2 SLP176
     T01780111 10233 20172 402500150 51006=
KRFD 220554Z 33008KT 10SM OVC150 20/17 A3003 RMK AO2 SLP164
     T02000167 10233 20200 402780183 50004 $=
KRFD 220554Z 33008KT 10SM OVC150 20/17 A3003 RMK AO2 SLP164
     T02000167 10233 20200 402780183 50004 $=
KORD 220551Z 34005KT 10SM FEW030 SCT045 OVC130 21/16 A2998
     RMK AO2 SLP147 T02110156 10239 20211 402830183 58001=
KORD 220551Z 34005KT 10SM FEW030 SCT045 OVC130 21/16 A2998
     RMK AO2 SLP147 T02110156 10239 20211 402830183 58001=